Weather History for EGQL - August, 2013

Change the Weather History Date:

Thursday, August 1, 2013

  Actual Average Record
Temperature  
Mean Temperature 65 °F -  
Max Temperature 73 °F 63 °F 73 °F (1997)
Min Temperature 57 °F 50 °F 50 °F (2001)
Growing Degree Days 15 (Base 50)    
Moisture  
Dew Point 60 °F    
Average Humidity 91    
Maximum Humidity 100    
Minimum Humidity 65    
Precipitation  
Precipitation 0.04 in - - ()
Sea Level Pressure  
Sea Level Pressure 29.69 in    
Wind  
Wind Speed 9 mph ()    
Max Wind Speed 17 mph    
Max Gust Speed -    
Visibility 4.1 miles    
Events Rain    
Averages and records for this station are not official NWS values.
T = Trace of Precipitation, MM = Missing Value Source: Averaged Metar Reports

Daily Weather History Graph

Daily Weather History Graph

Search for Another Location

Airport or City:

Trip Planner

Search our weather history database for the weather conditions in past years. The results will help you decide how hot, cold, wet, or windy it might be!

Date:

Astronomy

Aug. 01, 2013 Rise Set
Actual Time 5:13 AM BST 9:20 PM BST
Civil Twilight 4:24 AM BST 10:09 PM BST
Nautical Twilight 3:09 AM BST 11:22 PM BST
Astronomical Twilight 1:50 AM BST 12:45 AM BST
Moon 12:36 AM BST (8/1) 5:24 PM BST (8/1)
Length of Visible Light 17h 45m
Length of Day
16h 06m
Waning Crescent, 25% of the Moon is Illuminated
Aug 1
Waning Crescent
Aug 6
New
Aug 14
First Quarter
Aug 21
Full
Aug 28
Last Quarter

Hourly Weather History & Observations

Time (BST) Temp. Dew Point Humidity Pressure Visibility Wind Dir Wind Speed Gust Speed Precip Events Conditions
12:38 AM 59.0 °F 57.2 °F 94% 29.77 in 5.6 mi East 13.8 mph - N/A Rain Light Rain
12:50 AM 59 °F 58 °F 94% 29.78 in 4 mi East 16.1 mph - - Rain Light Rain
12:50 AM 59.0 °F 57.2 °F 94% 29.77 in 4.3 mi East 16.1 mph - N/A Rain Light Rain
1:50 AM 59.0 °F 57.2 °F 94% 29.74 in 3.1 mi ESE 13.8 mph - N/A Rain Light Rain
2:19 AM 59.0 °F 57.2 °F 94% 29.74 in 1.6 mi East 13.8 mph - N/A Rain Rain
2:50 AM 57.2 °F 57.2 °F 100% 29.74 in 2.5 mi East 17.3 mph - N/A Rain Rain
3:50 AM 58 °F 57 °F 95% 29.73 in 2 mi East 13.8 mph - - Rain Heavy Rain
3:50 AM 57.2 °F 57.2 °F 100% 29.71 in 1.9 mi East 13.8 mph - N/A Rain Rain
4:50 AM 59.0 °F 57.2 °F 94% 29.68 in 2.2 mi East 10.4 mph - N/A Rain Light Rain
5:50 AM 59.0 °F 59.0 °F 100% 29.68 in - East 1.2 mph - N/A Rain Light Rain
6:50 AM 59 °F 58 °F 97% 29.71 in 2 mi North 3.5 mph - - Rain Light Rain
6:50 AM 59.0 °F 59.0 °F 100% 29.71 in 1.9 mi North 3.5 mph - N/A Rain Light Rain
7:40 AM 59.0 °F 59.0 °F 100% 29.71 in 2.8 mi NNE 3.5 mph - N/A Rain Light Rain
7:50 AM 59.0 °F 59.0 °F 100% 29.71 in 3.1 mi NNE 3.5 mph - N/A Rain Light Rain
8:28 AM 59.0 °F 59.0 °F 100% 29.71 in 3.1 mi ENE 6.9 mph - N/A Rain Rain
8:50 AM 59.0 °F 59.0 °F 100% 29.71 in 4.3 mi East 6.9 mph - N/A Rain Light Rain
9:34 AM 59.0 °F 59.0 °F 100% 29.71 in 1.6 mi East 6.9 mph - N/A   Overcast
9:50 AM 60 °F 59 °F 94% 29.71 in 1 mi East 8.1 mph - - Rain Light Rain
9:50 AM 59.0 °F 59.0 °F 100% 29.71 in 0.9 mi East 8.1 mph - N/A   Overcast
10:03 AM 60.8 °F 59.0 °F 94% 29.68 in 2.8 mi East 6.9 mph - N/A Rain Light Rain
10:50 AM 60.8 °F 60.8 °F 100% 29.68 in 5.0 mi East 6.9 mph - N/A   Overcast
11:14 AM 62.6 °F 60.8 °F 94% 29.68 in 6.2 mi East 6.9 mph - N/A   Mostly Cloudy
11:41 AM 62.6 °F 60.8 °F 94% 29.68 in 6.2 mi East 10.4 mph - N/A Rain Light Rain
11:50 AM 62.6 °F 60.8 °F 94% 29.68 in 6.2 mi East 8.1 mph - N/A   Mostly Cloudy
12:10 PM 66.2 °F 62.6 °F 88% 29.68 in 6.2 mi East 3.5 mph - N/A   Mostly Cloudy
12:50 PM 68 °F 64 °F 82% 29.69 in 5 mi SSW 9.2 mph - - Rain Light Rain
12:50 PM 68.0 °F 64.4 °F 88% 29.68 in 5.0 mi SSW 9.2 mph - N/A Rain Light Rain
1:50 PM 68.0 °F 62.6 °F 83% 29.68 in 6.2 mi SW 10.4 mph - N/A Rain Light Rain
2:50 PM 68.0 °F 62.6 °F 83% 29.68 in 6.2 mi SSW 8.1 mph - N/A   Mostly Cloudy
3:50 PM 71 °F 62 °F 65% 29.68 in 28 mi SW 9.2 mph - -   Partly Cloudy
3:50 PM 69.8 °F 62.6 °F 78% 29.68 in 6.2 mi SW 9.2 mph - N/A   Mostly Cloudy
4:50 PM 71.6 °F 60.8 °F 69% 29.65 in 6.2 mi SSW 9.2 mph - N/A   Mostly Cloudy
5:50 PM 68.0 °F 60.8 °F 78% 29.65 in 6.2 mi SE 5.8 mph - N/A   Mostly Cloudy
6:50 PM 65 °F 61 °F 81% 29.65 in 28 mi East 8.1 mph - -   Partly Cloudy
6:50 PM 66.2 °F 60.8 °F 83% 29.65 in 6.2 mi East 8.1 mph - N/A   Scattered Clouds
7:50 PM 66.2 °F 60.8 °F 83% 29.65 in 6.2 mi ESE 6.9 mph - N/A   Mostly Cloudy
8:50 PM 64.4 °F 60.8 °F 88% 29.62 in 6.2 mi East 6.9 mph - N/A   Mostly Cloudy
9:50 PM 62 °F 59 °F 88% 29.64 in 4 mi East 6.9 mph - -   Overcast
9:50 PM 62.6 °F 59.0 °F 88% 29.62 in 6.2 mi East 6.9 mph - N/A   Mostly Cloudy
10:50 PM 59.0 °F 57.2 °F 94% 29.62 in 3.1 mi NNE 4.6 mph - N/A   Haze
11:50 PM 59.0 °F 57.2 °F 94% 29.62 in 2.5 mi NNW 2.3 mph - N/A   Mostly Cloudy